Regional Weather Roundup
Issued by NWS

Home | Current Version | Previous Version | Text Only | Print | Product List | Glossary Off
Versions: 1 2 3 4 5 6 7 8 9 10 11 12 13 14 15 16 17 18 19 20 21 22 23 24 25 26 27 28 29 30 31 32 33 34 35 36 37 38 39 40 41 42 43 44 45 46 47 48 49 50

000
ASUS43 KMPX 260301
RWRMN
WEATHER ROUNDUP FOR MINNESOTA
NATIONAL WEATHER SERVICE TWIN CITIES/CHANHASSEN MN
1000 PM CDT WED APR 25 2018


NOTE: "FAIR" INDICATES FEW OR NO CLOUDS BELOW 12,000 FEET WITH NO
SIGNIFICANT WEATHER AND/OR OBSTRUCTIONS TO VISIBILITY. N/A MEANS
CURRENT SKY AND/OR WEATHER CONDITIONS ARE NOT AVAILABLE.

MNZ060>063-068>070-260400-
   Twin Cities Metro

CITY           SKY/WX    TMP DP  RH WIND       PRES   REMARKS
TWIN CITIES    CLOUDY    53  32  44 W6        30.00S
ST PAUL        FAIR      50  30  46 SW7       30.00S
CRYSTAL        FAIR      50  30  46 S6        29.98F
BLAINE         FAIR      52  30  43 SW6       29.98F
LAKEVILLE      FAIR      43  34  70 CALM      30.00S
EDEN PRAIRIE   FAIR      50  32  50 SW3       29.99S
SOUTH ST PAUL  FAIR      50  28  43 SW3       29.99F
LAKE ELMO      FAIR      45  32  61 CALM      29.99F
$$
MNZ001>005-007-008-013>017-022>024-027-028-260400-
   Northwest Minnesota

CITY           SKY/WX    TMP DP  RH WIND       PRES   REMARKS
BEMIDJI        FAIR      47  29  49 S5        29.87S
HALLOCK        FAIR      54  37  54 S15       29.72F
ROSEAU         FAIR      52  37  58 S13       29.75F
WARROAD        FAIR      52  37  58 S8        29.76F
THIEF RVR FALL FAIR      52  36  54 S15       29.80F
CROOKSTON      FAIR      52  37  58 S14       29.79F
FOSSTON        FAIR      45  34  65 S9        29.84F
DETROIT LAKES  FAIR      45  34  65 S7        29.89F
MOORHEAD       FAIR      54  36  50 S16       29.86F
PARK RAPIDS    FAIR      47  30  51 S10       29.89S
MAHNOMEN       FAIR      46  33  60 S10       29.85F
$$
MNZ006-009>011-018-025>026-260400-
   North Central Minnesota

CITY           SKY/WX    TMP DP  RH WIND       PRES   REMARKS
BAUDETTE       FAIR      50  34  54 S9        29.79F
FLAG ISLAND    FAIR      39  30  70 S12       29.74F
INTL FALLS     FAIR      48  27  44 S6        29.83F
WASKISH        FAIR      50  30  46 S6        29.83F
BIG FORK       FAIR      46  27  46 SW6       29.87F
LONGVILLE      FAIR      48  27  43 S3        29.90F
GRAND RAPIDS   FAIR      48  26  42 S6        29.92F
CRANE LAKE     FAIR      36  23  60 CALM      29.88F
ORR            FAIR      45  21  39 S3        29.85F
COOK           FAIR      48  25  40 S5        29.89F
WALKER         FAIR      48  28  44 S7        29.88F
$$
MNZ012-019>021-037-260400-
   Northeast Minnesota

CITY           SKY/WX    TMP DP  RH WIND       PRES   REMARKS
DULUTH         FAIR      49  20  31 SW8       29.93S
ELY            FAIR      48  25  40 S3        29.90S
HIBBING        FAIR      46  24  42 VRB5      29.90S
EVELETH        FAIR      47  26  42 S7        29.92S
DULUTH HARBOR  FAIR      37  30  75 CALM      29.94S
TWO HARBORS    FAIR      39  27  60 CALM      29.91F
SILVER BAY     FAIR      36  25  64 CALM      29.91S
GRAND MARAIS     N/A     32  24  72 CALM      29.94F
G MARAIS ARPRT FAIR      36  16  44 CALM      29.92F
$$
MNZ029>031-032-039>041-046>048-054>057-064-260400-
   West Central Minnesota

CITY           SKY/WX    TMP DP  RH WIND       PRES   REMARKS
FERGUS FALLS   FAIR      48  36  61 S10       29.88F
WHEATON        CLOUDY    50  36  57 S12       29.92F
MORRIS         CLOUDY    45  37  76 S8        29.93F
ALEXANDRIA     FAIR      50  33  52 S10       29.94F
ELBOW LAKE     FAIR      45  38  77 S12       29.92F
WADENA         FAIR      45  30  57 S7        29.91F
GLENWOOD       FAIR      43  34  70 S8        29.95F
APPLETON       CLOUDY    52  32  46 S3        29.94F
BENSON         CLOUDY    45  37  76 SW7       29.97S
ORTONVILLE     CLOUDY    48  36  61 S7        29.93F
WILLMAR        FAIR      43  36  75 CALM      29.99F
$$
MNZ033>034-036-042>043-049>051-058-059-260400-
   Central Minnesota

CITY           SKY/WX    TMP DP  RH WIND       PRES   REMARKS
ST CLOUD       FAIR      46  32  58 S5        29.96F
SAUK CENTRE    FAIR      43  34  70 S5        29.95F
PAYNESVILLE    FAIR      48  34  57 S7        29.97S
AITKIN         FAIR      45  25  45 S6        29.92S
PINE RIVER     FAIR      45  28  53 S5        29.95S
BRAINERD       FAIR      47  26  44 S8        29.93F
STAPLES        FAIR      43  28  56 S7        29.93S
LONG PRAIRIE   FAIR      43  32  65 SE6       29.95S
LITTLE FALLS   FAIR      46  25  42 S3        29.95F
LITCHFIELD     FAIR      46  36  66 CALM      29.98F
BUFFALO        FAIR      47  33  57 CALM      29.99F
MAPLE LAKE     FAIR      47  35  61 CALM      29.98F
HUTCHINSON     FAIR      45  39  78 S3        29.99F
$$
MNZ037-044-045-052-053-260400-
   East Central Minnesota

CITY           SKY/WX    TMP DP  RH WIND       PRES   REMARKS
PRINCETON      FAIR      46  28  49 S3        29.97F
MORA           FAIR      45  27  49 S3        29.98S
CAMBRIDGE      FAIR      52  32  46 S3        29.97F
RUSH CITY      MOCLDY    48  25  41 SW5       29.96F
MOOSE LAKE     FAIR      41  19  42 CALM      29.93S
HINCKLEY       FAIR      43  30  61 SW3       29.96S
CLOQUET        FAIR      48   9  20 SW3       29.94S
MCGREGOR       FAIR      45  27  49 S3        29.93F
$$
MNZ071>073-080-081-089-090-097-098-260400-
   Southwest Minnesota

CITY           SKY/WX    TMP DP  RH WIND       PRES   REMARKS
MONTEVIDEO     CLOUDY    48  37  66 S5        29.96F
GRANITE FALLS  CLOUDY    47  40  75 SE8       29.98F
CANBY          PTCLDY    49  37  62 S5        29.97F
MARSHALL       CLOUDY    48  36  63 S7        29.97
REDWOOD FALLS  CLOUDY    47  37  68 S7        29.97F
OLIVIA         CLOUDY    46  36  66 S6        29.97F
PIPESTONE      CLOUDY   N/A N/A N/A SW6       29.98S
WINDOM         CLOUDY    48  25  40 SE5       30.00S
WORTHINGTON    PTCLDY    51  32  48 S5        30.00F
JACKSON        PTCLDY    48  32  53 SE3       30.01F
TRACY          CLOUDY    51  37  58 S6        29.97F
SLAYTON        MOCLDY    47  38  69 S6        30.00S
$$
MNZ065>067-074>077-082>085-091>093-260400-
   South Central Minnesota

CITY           SKY/WX    TMP DP  RH WIND       PRES   REMARKS
MANKATO        FAIR      49  33  54 S3        30.01S
NEW ULM        CLOUDY    48  34  57 S5        29.99F
ST JAMES       CLOUDY    46  41  81 CALM      30.02S
FAIRMONT       CLOUDY    47  38  71 CALM      30.02S
GLENCOE        FAIR      48  38  70 CALM      29.98F
OWATONNA       FAIR      45  36  70 CALM      30.01S
WASECA         FAIR      43  34  70 CALM      30.03S
ALBERT LEA     FAIR      46  36  66 CALM      30.02S
$$
MNZ078>079-086>088-094>096-260400-
   Southeast Minnesota

CITY           SKY/WX    TMP DP  RH WIND       PRES   REMARKS
ROCHESTER      FAIR      51  29  42 NW3       30.01F
RED WING       FAIR      43  25  49 CALM      29.99S
STANTON        FAIR      44  35  71 CALM      30.00R
DODGE CENTER   FAIR      45  34  65 CALM      30.01F
WINONA         FAIR      48  34  57 CALM      29.98F
AUSTIN         FAIR      46  34  61 W3        30.01S
PRESTON        FAIR      49  26  39 NW3       30.01F
$$
ABBREVIATIONS USED IN REMARKS
   TC - TEMPERATURES IN CELSIUS
  WCI - WIND CHILL INDEX
   HX - HEAT INDEX
  VSB - VISIBILITY
$$




USA.gov is the U.S. government's official web portal to all federal, state and local government web resources and services.